Pierre, SD

2:20 PM CST on December 06, 2016 (GMT -0600)
Pierre Regional

Weather History for KPIR - March, 2014

Change the Weather History Date:

Friday, March 14, 2014

  Actual Average Record
Temperature  
Mean Temperature 44 °F 34 °F  
Max Temperature 54 °F 44 °F 79 °F (1935)
Min Temperature 33 °F 23 °F -3 °F (1951)
Degree Days  
Heating Degree Days 21 31  
Month to date heating degree days 536 474  
Since 1 July heating degree days 6531 5972  
Cooling Degree Days 0 0  
Month to date cooling degree days 0 0  
Year to date cooling degree days 0 0  
Moisture  
Dew Point 26 °F    
Average Humidity 56    
Maximum Humidity 82    
Minimum Humidity 29    
Precipitation  
Precipitation 0.00 in 0.04 in 2.23 in (1942)
Month to date precipitation 0.25 0.46  
Year to date precipitation 0.82 1.47  
Snow  
Snow 0.00 in 0.20 in 4.40 in (1942)
Month to date snowfall 3.0 3.3  
Since 1 July snowfall 27.9 25.1  
Snow Depth 0.00 in    
Sea Level Pressure  
Sea Level Pressure 29.86 in    
Wind  
Wind Speed 13 mph (NW)    
Max Wind Speed 24 mph    
Max Gust Speed 29 mph    
Visibility 10 miles    
Events      
T = Trace of Precipitation, MM = Missing Value Source: NWS Daily Summary

Daily Weather History Graph

Daily Weather History Graph

Search for Another Location

Airport or City:

Trip Planner

Search our weather history database for the weather conditions in past years. The results will help you decide how hot, cold, wet, or windy it might be!

Date:

Astronomy

Mar. 14, 2014 Rise Set
Actual Time 7:55 AM CDT 7:46 PM CDT
Civil Twilight 7:26 AM CDT 8:15 PM CDT
Nautical Twilight 6:52 AM CDT 8:48 PM CDT
Astronomical Twilight 6:18 AM CDT 9:23 PM CDT
Moon 6:07 PM CDT (3/14) 6:39 AM CDT (3/14)
Length of Visible Light 12h 48m
Length of Day
11h 50m
Waxing Gibbous, 96% of the Moon is Illuminated
Mar 14
Waxing Gibbous
Mar 16
Full
Mar 23
Last Quarter
Mar 30
New
Apr 7
First Quarter

Hourly Weather History & Observations

Time (CDT) Temp. Windchill Dew Point Humidity Pressure Visibility Wind Dir Wind Speed Gust Speed Precip Events Conditions
12:53 AM 39.9 °F 31.1 °F 28.9 °F 65% 29.77 in 10.0 mi NW 17.3 mph - N/A   Clear
1:53 AM 39.9 °F 31.4 °F 28.0 °F 63% 29.79 in 10.0 mi NW 16.1 mph 26.5 mph N/A   Clear
2:53 AM 37.0 °F 27.4 °F 28.0 °F 70% 29.82 in 10.0 mi NW 17.3 mph - N/A   Clear
3:53 AM 37.0 °F 27.4 °F 28.0 °F 70% 29.83 in 10.0 mi WNW 17.3 mph - N/A   Clear
4:53 AM 35.1 °F 26.4 °F 27.0 °F 72% 29.83 in 10.0 mi West 12.7 mph - N/A   Clear
5:53 AM 35.1 °F 24.5 °F 27.0 °F 72% 29.84 in 10.0 mi WNW 18.4 mph - N/A   Clear
6:53 AM 35.1 °F 23.8 °F 26.1 °F 70% 29.86 in 10.0 mi WNW 20.7 mph - N/A   Clear
7:53 AM 33.1 °F 23.4 °F 25.0 °F 72% 29.88 in 10.0 mi WNW 13.8 mph - N/A   Clear
8:53 AM 34.0 °F 23.8 °F 26.1 °F 73% 29.91 in 10.0 mi WNW 16.1 mph - N/A   Clear
9:53 AM 39.9 °F 30.2 °F 26.1 °F 58% 29.92 in 10.0 mi West 20.7 mph - N/A   Clear
10:53 AM 44.1 °F 36.5 °F 23.0 °F 43% 29.91 in 10.0 mi WNW 17.3 mph 28.8 mph N/A   Clear
11:53 AM 46.0 °F 38.5 °F 19.9 °F 35% 29.92 in 10.0 mi NW 19.6 mph 26.5 mph N/A   Clear
12:53 PM 48.0 °F - 21.9 °F 36% 29.91 in 10.0 mi NW 19.6 mph - N/A   Clear
1:53 PM 50.0 °F - 19.9 °F 31% 29.90 in 10.0 mi NW 17.3 mph - N/A   Clear
2:53 PM 50.0 °F - 21.9 °F 33% 29.88 in 10.0 mi NW 12.7 mph - N/A   Clear
3:53 PM 52.0 °F - 24.1 °F 34% 29.86 in 10.0 mi NW 8.1 mph - N/A   Clear
4:53 PM 53.1 °F - 25.0 °F 34% 29.86 in 10.0 mi NW 6.9 mph - N/A   Clear
5:53 PM 53.1 °F - 25.0 °F 34% 29.84 in 10.0 mi NW 6.9 mph - N/A   Clear
6:53 PM 52.0 °F - 27.0 °F 38% 29.84 in 10.0 mi NNE 3.5 mph - N/A   Clear
7:53 PM 43.0 °F 38.8 °F 28.9 °F 58% 29.86 in 10.0 mi ENE 6.9 mph - N/A   Clear
8:53 PM 39.0 °F 32.3 °F 28.9 °F 67% 29.86 in 10.0 mi NE 10.4 mph - N/A   Clear
9:53 PM 39.9 °F 34.5 °F 28.0 °F 63% 29.86 in 10.0 mi East 8.1 mph - N/A   Clear
10:53 PM 37.9 °F 32.7 °F 27.0 °F 65% 29.86 in 10.0 mi East 6.9 mph - N/A   Clear
11:53 PM 36.0 °F 27.5 °F 30.0 °F 79% 29.88 in 10.0 mi East 12.7 mph - N/A   Clear